Waarnemingen

Advertentie
Mijn weer
Görlitz, Duitsland (10499): temperatuur & dauwpunt: 17.07.2017 08:00:00 - 23.07.2017 08:00:00 (CEST)Görlitz, Duitsland (10499): temperatuur 5cm & temperatuur -5cm: 17.07.2017 08:00:00 - 23.07.2017 08:00:00 (CEST)Görlitz, Duitsland (10499): temperatuur -20cm & temperatuur -100cm: 17.07.2017 08:00:00 - 23.07.2017 08:00:00 (CEST)Görlitz, Duitsland (10499): windsnelheid & windstoten: 17.07.2017 08:00:00 - 23.07.2017 08:00:00 (CEST)Görlitz, Duitsland (10499): windrichting: 17.07.2017 08:00:00 - 23.07.2017 08:00:00 (CEST)Görlitz, Duitsland (10499): luchtdruk: 17.07.2017 08:00:00 - 23.07.2017 08:00:00 (CEST)Görlitz, Duitsland (10499): zicht: 17.07.2017 08:00:00 - 23.07.2017 08:00:00 (CEST)Görlitz, Duitsland (10499): Zonneschijnduur: 17.07.2017 08:00:00 - 23.07.2017 08:00:00 (CEST)Görlitz, Duitsland (10499): neerslag: 17.07.2017 08:00:00 - 23.07.2017 08:00:00 (CEST)
Datum & Tijd tt [°C] td [°C] tt 5cm [°C] tt -5cm [°C] tt -20cm [°C] tt -100cm [°C] ff [km/u] ff [kn] fx [km/u] fx [kn] dd ppp [hPa] vv [km] sd [min] rr [mm]
23.07.2017 08:00:00 20,5 18,1 22,3 21,0 22,0 18,4 10 5 13 7 Z 1012,5 45 60 0,0
23.07.2017 07:00:00 17,7 17,0 19,4 20,9 22,2 18,4 8 5 12 6 Z 1012,7 30 60 0,0
23.07.2017 06:00:00 16,2 16,2 15,9 21,1 22,4 18,4 1 1 8 4 ZO 1013,1 30 13 0,0
23.07.2017 05:00:00 15,6 15,6 15,0 21,5 22,6 18,4 5 3 11 6 Z 1013,0 0,1 0 0,0
23.07.2017 04:00:00 16,5 16,5 16,3 21,8 22,8 18,4 7 4 10 5 Z 1013,0 0,1 0 0,0
23.07.2017 03:00:00 17,1 17,1 17,3 22,0 23,0 18,4 7 4 10 5 ZZO 1013,4 0,1 0 0,0
23.07.2017 02:00:00 16,1 16,1 16,1 22,3 23,2 18,4 0 0 6 3 N 1013,8 0,1 0 0,0
23.07.2017 01:00:00 17,3 17,3 16,9 22,7 23,4 18,4 4 2 9 5 Z 1013,9 0,1 0 0,0
23.07.2017 00:00:00 16,8 16,7 16,5 23,2 23,7 18,4 2 1 10 6 N 1014,3 0,1 0 0,0
22.07.2017 23:00:00 18,6 18,2 18,0 23,8 23,9 18,3 1 1 7 4 NNO 1014,6 10 0 0,0
22.07.2017 22:00:00 18,5 18,2 18,0 24,5 24,0 18,3 5 3 7 4 OZO 1014,7 16 0 0,0
22.07.2017 21:00:00 19,5 18,7 18,9 25,1 24,2 18,3 3 2 12 7 ZO 1014,1 21 31 0,0
22.07.2017 20:00:00 19,9 18,6 20,5 25,6 24,2 18,3 4 2 7 4 NNW 1013,7 22 18 0,0
22.07.2017 19:00:00 19,5 18,5 19,8 26,4 24,2 18,3 4 2 27 15 NO 1013,5 22 0 2,6
22.07.2017 18:00:00 19,5 18,2 19,3 27,4 24,0 18,3 21 11 47 25 W 1013,7 12 0 0,0
22.07.2017 17:00:00 27,5 15,4 28,9 27,9 23,7 18,3 6 4 16 9 WZW 1011,1 45 29 0,0
22.07.2017 16:00:00 29,2 14,6 33,5 27,7 23,3 18,3 11 6 23 12 ZO 1011,1 72 37 0,0
22.07.2017 15:00:00 28,5 14,2 31,4 27,2 22,9 18,3 13 7 33 18 ZZO 1011,7 70 46 0,0
22.07.2017 14:00:00 28,0 14,7 30,9 26,5 22,6 18,3 9 5 24 13 O 1012,0 65 53 0,0
22.07.2017 13:00:00 28,1 13,9 34,3 25,4 22,3 18,3 8 5 19 10 ONO 1012,5 65 50 0,0
22.07.2017 12:00:00 27,3 15,2 33,8 24,4 22,1 18,3 7 4 14 8 O 1012,9 60 46 0,0
22.07.2017 11:00:00 26,3 15,9 30,2 23,4 21,9 18,3 5 3 12 6 Z 1013,3 60 52 0,0
22.07.2017 10:00:00 24,7 16,2 29,4 22,4 21,9 18,3 6 3 14 8 OZO 1013,4 65 60 0,0
22.07.2017 09:00:00 21,9 15,8 25,8 21,7 22,0 18,3 5 3 12 6 O 1013,9 70 60 0,0
22.07.2017 08:00:00 19,9 15,5 22,8 21,3 22,2 18,3 4 2 10 5 O 1013,9 72 60 0,0
22.07.2017 07:00:00 18,1 15,2 19,6 21,3 22,4 18,2 4 2 12 6 ZO 1013,8 72 60 0,0
22.07.2017 06:00:00 14,2 13,3 13,6 21,6 22,6 18,3 3 2 6 3 ZW 1014,1 23 10 0,0
22.07.2017 05:00:00 15,2 14,0 13,7 21,9 22,8 18,2 4 2 10 6 ZZW 1013,7 18 0 0,0
22.07.2017 04:00:00 17,1 15,0 14,7 22,3 23,1 18,2 2 1 6 3 NO 1013,6 20 0 0,0
22.07.2017 03:00:00 16,5 14,0 14,9 22,8 23,3 18,2 3 2 10 6 O 1014,2 20 0 0,0
22.07.2017 02:00:00 18,1 15,0 17,1 23,2 23,5 18,2 7 4 13 7 NO 1013,9 20 0 0,0
22.07.2017 01:00:00 18,1 15,1 16,7 23,7 23,6 18,2 8 5 11 6 NO 1013,8 25 0 0,0
22.07.2017 00:00:00 19,7 15,6 18,1 24,3 23,8 18,2 6 3 10 6 ONO 1013,8 30 0 0,0
21.07.2017 23:00:00 19,2 15,7 16,5 24,9 23,9 18,2 4 2 9 5 NO 1013,9 35 0 0,0
21.07.2017 22:00:00 21,7 15,4 18,1 25,7 23,9 18,1 4 2 8 4 ONO 1013,5 40 0 0,0
21.07.2017 21:00:00 24,0 15,0 21,7 26,4 23,8 18,2 5 3 10 5 NO 1012,9 50 39 0,0
21.07.2017 20:00:00 25,4 15,2 25,8 26,8 23,6 18,1 8 4 14 8 O 1012,6 50 60 0,0
21.07.2017 19:00:00 26,4 14,2 28,8 26,7 23,4 18,1 7 4 11 6 O 1012,6 55 60 0,0
21.07.2017 18:00:00 26,9 13,8 30,4 26,3 23,2 18,1 8 4 16 9 NO 1012,6 55 41 0,0
21.07.2017 17:00:00 25,9 14,0 27,7 26,3 22,9 18,1 9 5 18 10 NNO 1013,1 55 27 0,0
21.07.2017 16:00:00 26,0 13,9 29,8 25,8 22,7 18,1 3 2 14 7 NNO 1013,3 50 43 0,0
21.07.2017 15:00:00 25,0 16,1 29,4 25,2 22,5 18,1 5 3 14 8 O 1013,8 45 15 0,0
21.07.2017 14:00:00 24,3 16,0 27,6 24,8 22,3 18,0 4 2 12 6 O 1014,1 35 10 0,0
21.07.2017 13:00:00 23,8 15,8 28,4 24,4 22,0 18,0 6 3 11 6 NNW 1014,2 27 26 0,0
21.07.2017 12:00:00 24,3 17,3 31,1 23,3 21,9 18,0 4 2 12 7 WZW 1014,3 22 52 0,0
21.07.2017 11:00:00 21,7 16,3 27,3 22,5 21,9 18,0 5 3 13 7 W 1014,5 22 33 0,0
21.07.2017 10:00:00 21,2 16,7 24,9 22,0 22,0 18,0 8 4 20 11 W 1014,4 25 32 0,0
21.07.2017 09:00:00 20,5 16,7 22,4 21,7 22,1 18,0 14 8 22 12 W 1014,3 25 7 0,0
21.07.2017 08:00:00 20,0 16,5 21,5 21,6 22,3 18,0 10 6 17 9 W 1013,7 40 3 0,0
21.07.2017 07:00:00 18,4 16,3 18,2 21,7 22,4 17,9 8 4 10 6 WZW 1013,3 35 0 0,0
21.07.2017 06:00:00 17,6 15,7 16,4 21,9 22,6 17,9 5 3 11 6 WZW 1013,0 27 0 0,0
21.07.2017 05:00:00 17,5 16,2 16,2 22,2 22,8 17,9 5 3 12 6 ZZW 1012,8 12 0 0,0
21.07.2017 04:00:00 18,0 16,6 16,8 22,6 23,0 17,9 7 4 12 7 ZW 1012,9 12 0 0,0
21.07.2017 03:00:00 18,4 17,0 17,6 22,9 23,2 17,9 9 5 12 6 ZW 1012,7 12 0 0,0
21.07.2017 02:00:00 18,7 17,9 18,0 23,3 23,3 17,8 6 4 10 6 Z 1012,6 12 0 0,0
21.07.2017 01:00:00 19,0 18,1 18,5 23,6 23,5 17,8 7 4 14 8 ZZW 1012,4 12 0 0,2
21.07.2017 00:00:00 19,7 18,2 19,1 24,0 23,7 17,8 9 5 19 10 WZW 1012,0 13 0 0,0
20.07.2017 23:00:00 20,2 18,0 19,9 24,4 23,8 17,8 9 5 21 11 W 1011,5 13 0 0,0
20.07.2017 22:00:00 20,7 18,4 20,2 24,9 23,9 17,7 12 7 37 20 W 1011,5 20 0 0,0
20.07.2017 21:00:00 21,9 18,7 20,8 25,4 24,0 17,7 6 3 11 6 ZW 1010,0 30 0 0,0
20.07.2017 20:00:00 22,5 18,2 22,5 25,9 24,0 17,7 9 5 13 7 ZW 1009,6 27 0 0,0
20.07.2017 19:00:00 21,5 18,9 21,1 26,6 23,9 17,7 9 5 24 13 WZW 1009,3 40 0 0,2
20.07.2017 18:00:00 24,7 17,9 25,6 27,3 23,7 17,7 11 6 20 11 WZW 1009,1 40 0 0,0
20.07.2017 17:00:00 27,0 17,2 27,9 27,9 23,4 17,6 6 4 24 13 W 1008,6 60 4 0,1
20.07.2017 16:00:00 29,1 15,1 35,5 27,7 23,0 17,6 10 5 24 13 WNW 1008,6 60 58 0,0
20.07.2017 15:00:00 28,8 14,8 35,9 27,0 22,6 17,6 8 5 24 13 WZW 1008,8 60 60 0,0
20.07.2017 14:00:00 27,8 14,0 34,5 26,0 22,3 17,6 7 4 29 15 ZZW 1009,2 60 56 0,0
20.07.2017 13:00:00 26,6 14,6 31,1 25,0 22,0 17,6 14 7 24 13 ZZW 1009,7 60 54 0,0
20.07.2017 12:00:00 26,1 15,1 32,1 23,9 21,9 17,6 14 7 19 10 Z 1010,0 55 60 0,0
20.07.2017 11:00:00 25,2 15,2 31,0 22,7 21,8 17,5 9 5 19 11 Z 1010,4 50 57 0,0
20.07.2017 10:00:00 22,6 14,4 27,3 22,1 21,9 17,5 5 3 9 5 WZW 1010,7 70 8 0,0
20.07.2017 09:00:00 20,6 16,7 21,4 22,0 22,0 17,5 5 3 11 6 ZW 1010,7 75 0 0,0
20.07.2017 08:00:00 20,0 15,6 20,6 21,9 22,2 17,5 6 3 15 8 ZO 1009,8 65 14 0,0
20.07.2017 07:00:00 20,0 15,2 22,0 21,9 22,3 17,5 7 4 14 7 ZO 1010,8 55 23 0,0
20.07.2017 06:00:00 18,6 15,1 18,2 22,1 22,5 17,5 10 5 17 9 ZZW 1011,6 55 0 0,0
20.07.2017 05:00:00 19,1 14,8 18,0 22,4 22,7 17,4 8 5 19 10 WZW 1011,4 30 0 0,0
20.07.2017 04:00:00 20,1 14,7 19,3 22,8 22,9 17,4 15 8 30 16 W 1011,5 35 0 0,0
20.07.2017 03:00:00 20,6 14,9 19,4 23,1 23,1 17,4 15 8 36 20 WZW 1011,0 30 0 0,0
20.07.2017 02:00:00 19,1 16,3 17,8 23,6 23,3 17,4 4 2 16 9 ZZO 1010,5 25 0 0,0
20.07.2017 01:00:00 20,7 16,2 19,6 24,0 23,4 17,4 9 5 11 6 OZO 1010,9 25 0 0,0
20.07.2017 00:00:00 20,0 15,8 18,1 24,6 23,6 17,4 3 2 12 7 OZO 1011,5 23 0 0,0
19.07.2017 23:00:00 22,7 15,5 21,2 25,2 23,7 17,4 10 5 15 8 O 1011,3 30 0 0,0
19.07.2017 22:00:00 24,3 13,7 22,2 26,0 23,7 17,4 7 4 9 5 ONO 1011,4 35 0 0,0
19.07.2017 21:00:00 25,9 13,5 24,0 26,8 23,6 17,4 6 4 9 5 ONO 1011,3 50 29 0,0
19.07.2017 20:00:00 27,3 13,7 27,0 27,5 23,4 17,3 8 4 13 7 NO 1011,3 55 58 0,0
19.07.2017 19:00:00 29,5 12,7 30,7 27,8 23,1 17,3 3 1 17 9 ZW 1011,4 55 60 0,0
19.07.2017 18:00:00 29,1 12,8 33,7 27,9 22,8 17,3 4 2 13 7 W 1011,9 55 60 0,0
19.07.2017 17:00:00 29,0 13,3 35,0 27,7 22,3 17,3 7 4 16 9 NW 1012,1 50 49 0,0
19.07.2017 16:00:00 28,8 12,8 35,7 27,3 21,8 17,3 8 4 15 8 NW 1012,7 50 60 0,0
19.07.2017 15:00:00 27,8 13,1 34,5 26,3 21,4 17,3 6 3 16 9 WNW 1013,2 50 60 0,0
19.07.2017 14:00:00 26,9 13,8 32,4 25,3 21,0 17,3 9 5 16 8 OZO 1013,8 50 60 0,0
19.07.2017 13:00:00 26,5 14,4 33,1 24,1 20,6 17,3 9 5 21 11 O 1014,3 50 60 0,0
19.07.2017 12:00:00 25,9 15,1 31,5 22,9 20,4 17,3 8 4 19 10 NO 1014,8 50 60 0,0
19.07.2017 11:00:00 24,0 14,4 29,4 21,7 20,2 17,2 9 5 16 9 ONO 1015,5 50 60 0,0
19.07.2017 10:00:00 22,1 14,2 26,4 20,7 20,2 17,2 9 5 15 8 ONO 1015,8 50 60 0,0
19.07.2017 09:00:00 20,5 14,0 24,0 20,0 20,3 17,2 4 2 9 5 O 1016,2 50 58 0,0
19.07.2017 08:00:00 17,8 13,4 19,9 19,6 20,4 17,2 3 2 7 4 N 1016,7 50 47 0,0
19.07.2017 07:00:00 15,4 12,2 17,7 19,6 20,6 17,2 2 1 5 3 W 1016,8 50 27 0,0
19.07.2017 06:00:00 13,4 12,0 12,9 19,8 20,9 17,2 0 0 4 2 N 1016,9 40 15 0,0
19.07.2017 05:00:00 13,8 12,1 11,9 20,2 21,1 17,2 3 2 8 4 ONO 1017,0 20 0 0,0
19.07.2017 04:00:00 14,3 12,1 12,6 20,6 21,3 17,2 5 3 9 5 N 1017,3 23 0 0,0
19.07.2017 03:00:00 15,3 12,2 13,8 21,1 21,5 17,2 6 4 13 7 ONO 1017,6 30 0 0,0
19.07.2017 02:00:00 16,2 12,7 13,3 21,6 21,7 17,1 4 2 8 4 NNO 1018,1 35 0 0,0
19.07.2017 01:00:00 17,6 12,5 15,8 22,1 21,8 17,1 7 4 13 7 NO 1018,2 35 0 0,0
19.07.2017 00:00:00 18,6 12,9 17,2 22,6 22,0 17,1 7 4 10 6 NO 1018,4 35 0 0,0
18.07.2017 23:00:00 19,4 12,9 18,8 23,2 22,1 17,1 5 3 15 8 ONO 1018,5 40 0 0,0
18.07.2017 22:00:00 19,3 13,2 16,6 24,0 22,1 17,1 6 3 8 5 NNO 1018,6 45 0 0,0
18.07.2017 21:00:00 21,7 12,2 19,1 24,8 22,0 17,1 4 2 9 5 NNO 1018,1 55 33 0,0
18.07.2017 20:00:00 24,2 10,8 24,0 25,4 21,8 17,1 6 3 12 7 NO 1017,9 60 54 0,0
18.07.2017 19:00:00 25,0 10,5 28,1 25,7 21,5 17,1 5 3 16 8 N 1018,1 60 60 0,0
18.07.2017 18:00:00 25,1 11,2 29,7 25,8 21,2 17,1 7 4 18 10 NNW 1018,5 65 56 0,0
18.07.2017 17:00:00 24,9 12,4 30,9 25,6 20,8 17,1 7 4 18 10 WNW 1019,0 65 49 0,0
18.07.2017 16:00:00 24,4 12,4 30,1 25,3 20,3 17,1 6 3 14 7 O 1019,5 65 37 0,0
18.07.2017 15:00:00 24,4 11,9 33,2 24,7 19,8 17,1 6 3 16 9 W 1020,1 60 57 0,0
18.07.2017 14:00:00 24,0 11,1 33,1 23,7 19,4 17,1 7 4 19 10 N 1020,5 55 45 0,0
18.07.2017 13:00:00 23,6 11,3 31,3 22,5 19,0 17,1 7 4 22 12 N 1021,0 55 59 0,0
18.07.2017 12:00:00 22,0 11,8 27,2 21,3 18,6 17,1 11 6 18 10 O 1021,4 55 60 0,0
18.07.2017 11:00:00 21,2 10,9 26,3 20,0 18,4 17,1 7 4 19 11 ZO 1021,8 50 60 0,0
18.07.2017 10:00:00 20,7 11,0 26,2 18,8 18,3 17,1 7 4 14 8 ONO 1022,0 50 39 0,0
18.07.2017 09:00:00 19,7 12,0 25,0 18,0 18,4 17,2 4 2 7 4 ONO 1022,1 50 54 0,0
18.07.2017 08:00:00 18,2 13,4 19,9 17,4 18,5 17,1 2 1 8 4 O 1022,3 18 59 0,0
18.07.2017 07:00:00 15,0 12,9 15,3 17,2 18,7 17,1 1 1 4 2 ZW 1022,6 18 51 0,0
18.07.2017 06:00:00 12,5 11,9 13,3 17,3 18,9 17,1 2 1 4 2 ZW 1022,5 23 22 0,0
18.07.2017 05:00:00 11,2 11,1 10,6 17,6 19,1 17,1 5 3 8 4 WZW 1022,5 10 0 0,0
18.07.2017 04:00:00 13,1 13,1 10,8 18,0 19,3 17,1 1 1 8 4 ZO 1022,4 11 0 0,0
18.07.2017 03:00:00 12,1 11,4 10,5 18,4 19,4 17,1 5 3 8 4 WZW 1022,7 12 0 0,0
18.07.2017 02:00:00 13,9 13,4 11,5 18,9 19,6 17,0 6 4 8 4 W 1022,5 15 0 0,0
18.07.2017 01:00:00 15,1 14,2 12,8 19,4 19,7 17,1 6 3 7 4 WZW 1022,4 20 0 0,0
18.07.2017 00:00:00 15,1 14,6 13,1 19,9 19,8 17,0 4 2 11 6 W 1022,0 25 0 0,0
17.07.2017 23:00:00 17,1 14,9 14,5 20,3 19,9 17,0 5 3 8 4 NW 1021,8 30 0 0,0
17.07.2017 22:00:00 18,4 15,0 16,6 20,8 19,9 17,0 4 2 8 5 NW 1021,6 35 0 0,0
17.07.2017 21:00:00 19,4 15,0 18,8 21,2 19,9 17,0 4 2 14 8 NNW 1021,1 40 0 0,0
17.07.2017 20:00:00 20,3 14,7 21,2 21,5 19,8 17,0 8 4 16 9 NNW 1020,7 40 35 0,0
17.07.2017 19:00:00 20,9 15,1 22,5 21,6 19,6 17,0 11 6 22 12 N 1020,5 45 28 0,0
17.07.2017 18:00:00 20,9 15,2 22,2 21,8 19,5 17,0 16 9 22 12 N 1020,6 45 - 0,0
17.07.2017 17:00:00 23,2 15,3 28,0 21,4 19,3 17,0 9 5 21 11 N 1020,2 50 - 0,0
17.07.2017 16:00:00 21,4 14,7 24,4 21,0 19,1 17,0 12 7 24 13 NNW 1020,5 28 17 0,0
17.07.2017 15:00:00 21,0 15,2 24,4 20,5 18,9 17,0 12 7 22 12 NNW 1020,7 25 9 0,0
17.07.2017 14:00:00 20,6 15,1 23,5 19,9 18,8 17,0 11 6 20 11 W 1020,9 25 24 0,0
17.07.2017 13:00:00 19,4 15,5 21,5 19,4 18,8 17,0 11 6 17 9 W 1021,1 25 3 0,0
17.07.2017 12:00:00 18,1 15,7 19,2 19,1 18,7 17,0 8 5 15 8 NW 1021,3 20 4 0,0
17.07.2017 11:00:00 17,5 16,4 19,2 18,7 18,8 17,0 8 4 16 8 W 1021,3 6 0 0,0
17.07.2017 10:00:00 16,4 15,7 17,5 18,7 18,8 17,0 8 5 21 11 NW 1021,2 6 0 0,5
17.07.2017 09:00:00 16,4 16,1 16,7 18,7 18,9 17,0 9 5 23 12 W 1021,0 2,4 0 1,7
17.07.2017 08:00:00 18,0 14,4 18,4 18,7 18,9 17,0 13 7 20 11 W 1020,3 27 0 0,0

tt = temperatuur
td = dauwpunt
tt 5cm = temperatuur 5cm
tt -5cm = temperatuur -5cm
tt -20cm = temperatuur -20cm
tt -100cm = temperatuur -100cm
ff = windsnelheid
fx = windstoten
dd = windrichting
ppp = luchtdruk
vv = zicht
sd = Zonneschijnduur
rr = neerslag

Weerstations in de omgeving